1303862427305,18.9604
1303862487305,18.9357
1303862547305,18.9344
1303862607305,18.9607
1303862667305,18.9673
1303862727305,18.9462
1303862787305,18.9299
1303862847305,18.9323
1303862907305,19.0079
1303862967305,18.9269
1303863027305,18.9511
1303863087305,18.9498
1303863147305,19.0072
1303863207305,18.9683
1303863267305,18.9632
1303863327305,18.9750
1303863387305,18.9874
1303863447305,18.9662
1303863507305,18.9988
1303863567305,18.9882
1303863627305,18.9944
1303863687305,18.9907
1303863747305,19.0439
1303863807305,18.9873
1303863867305,18.9981
1303863927305,19.0056
1303863987305,18.9991
1303864047305,18.9980
1303864107305,19.0184
1303864167305,19.0405
1303864227305,19.0349
1303864287305,18.9842
1303864347305,18.9733
1303864407305,18.9905
1303864467305,18.9820
1303864527305,19.0030
1303864587305,18.9035
1303864647305,18.9695
1303864707305,18.9910
1303864767305,18.8714
1303864827305,18.9410
1303864887305,18.9300
1303864947305,18.9649
1303865007305,18.9100
1303865067305,18.9046
1303865127305,18.9292
1303865187305,18.9011
1303865247305,18.9066
1303865307305,18.9446
1303865367305,18.9584
1303865427305,18.9471
1303865487305,18.9294
1303865547305,18.9211
1303865607305,18.9533
1303865667305,18.8865
1303865727305,18.8745
1303865787305,18.9139
1303865847305,18.8866
1303865907305,18.8918
1303865967305,18.8681
1303866027316,18.8577
1303866087316,18.8519
1303866147316,18.8628
1303866207316,18.8812
1303866267316,18.8893
1303866327316,18.8523
1303866387316,18.8749
1303866447316,18.8899
1303866507316,18.9300
1303866567316,18.8422
1303866627316,18.8803
1303866687316,18.8579
1303866747316,18.9030
1303866807316,18.8719
1303866867316,18.8921
1303866927316,18.9366
1303866987316,18.9431
1303867047316,18.8895
1303867107316,18.9366
1303867167316,18.9259
1303867227316,18.9107
1303867287316,18.8887
1303867347316,18.9073
1303867407316,18.9114
1303867467316,18.8928
1303867527316,18.8683
1303867587316,18.9542
1303867647316,18.9323
1303867707316,18.9412
1303867767316,18.9357
1303867827316,18.9503
1303867887316,18.9320
1303867947316,18.9024
1303868007316,18.9273
1303868067316,18.9237
1303868127316,18.9415
1303868187316,18.9566
1303868247316,18.9943
1303868307316,19.0235
1303868367316,19.0561
1303868427316,19.0548
1303868487316,19.0899
1303868547316,19.0509
1303868607316,19.0666
1303868667316,19.0451
1303868727316,19.0343
1303868787316,18.9694
1303868847316,19.0241
1303868907316,19.0536
1303868967316,19.0660
1303869027316,19.0027
1303869087316,19.0065
1303869147316,19.0342
1303869207316,19.0442
1303869267316,19.1235
1303869327316,19.1156
1303869387316,19.0905
1303869447316,19.0184
1303869507316,19.0318
1303869567316,19.0214
1303869627327,18.9891
1303869687327,18.9574
1303869747327,18.9864
1303869807327,18.9909
1303869867327,19.0131
1303869927327,19.0331
1303869987327,19.0062
1303870047327,19.0877
1303870107327,19.0439
1303870167327,19.0854
1303870227327,19.1333
1303870287327,19.1707
1303870347327,19.1204
1303870407327,19.1187
1303870467327,19.0565
1303870527327,19.1039
1303870587327,19.1349
1303870647327,19.0745
1303870707327,19.0853
1303870767327,19.1435
1303870827327,19.1364
1303870887327,19.1393
1303870947327,19.2220
1303871007327,19.2544
1303871067327,19.3148
1303871127327,19.4181
1303871187327,19.3854
1303871247327,19.5811
1303871307327,19.7522
1303871367327,19.7950
1303871427327,19.7691
1303871487327,19.8564
1303871547327,19.8869
1303871607327,19.8451
1303871667327,19.7940
1303871727327,19.7793
1303871787327,19.7297
1303871847327,19.6488
1303871907327,19.6104
1303871967327,19.5755
1303872027327,19.5797
1303872087327,19.5489
1303872147327,19.5662
1303872207327,19.5406
1303872267327,19.4621
1303872327327,19.4646
1303872387327,19.4371
1303872447327,19.4474
1303872507327,19.4820
1303872567327,19.4729
1303872627327,19.4993
1303872687327,19.4089
1303872747327,19.4840
1303872807327,19.3650
1303872867327,19.3516
1303872927327,19.3700
1303872987327,19.3854
1303873047327,19.3290
1303873107327,19.3530
1303873167327,19.3216
1303873227338,19.3780
1303873287338,19.3393
1303873347338,19.3468
1303873407338,19.3410
1303873467337,19.2912
1303873527338,19.3490
1303873587338,19.3414
1303873647338,19.2729
1303873707338,19.2770
1303873767338,19.2219
1303873827338,19.2038
1303873887338,19.1976
1303873947338,19.2359
1303874007338,19.1970
1303874067338,19.1886
1303874127338,19.1752
1303874187338,19.1962
1303874247338,19.1996
1303874307338,19.2200
1303874367338,19.2243
1303874427338,19.2518
1303874487338,19.1904
1303874547338,19.1822
1303874607338,19.2373
1303874667338,19.2088
1303874727338,19.2343
1303874787338,19.2294
1303874847337,19.2498
1303874907338,19.2676
1303874967338,19.2360
1303875027338,19.1919
1303875087338,19.2093
1303875147338,19.2791
1303875207338,19.2986
1303875267338,19.2323
1303875327338,19.2680
1303875387338,19.1887
1303875447338,19.2120
1303875507338,19.2353
1303875567338,19.2183
1303875627338,19.1940
1303875687338,19.2253
1303875747338,19.2095
1303875807338,19.2268
1303875867338,19.2166
1303875927338,19.2409
1303875987338,19.1367
1303876047338,19.1322
1303876107338,19.1208
1303876167337,19.1777
1303876227338,19.1588
1303876287338,19.1423
1303876347338,19.1657
1303876407338,19.1469
1303876467338,19.0989
1303876527338,19.1751
1303876587338,19.1213
1303876647338,19.1732
1303876707338,19.1296
1303876767338,19.1582
1303876827348,19.2014
1303876887348,19.1603
1303876947348,19.1884
1303877007348,19.1418
1303877067348,19.1070
1303877127348,19.1572
1303877187348,19.1159
1303877247348,19.1099
1303877307348,19.0998
1303877367348,19.1455
1303877427348,19.1217
1303877487348,19.1295
1303877547348,19.1155
1303877607348,19.1915
1303877667348,19.1460
1303877727348,19.1529
1303877787348,19.1051
1303877847348,19.1183
1303877907348,19.1321
1303877967348,19.1226
1303878027348,19.1372
1303878087348,19.1408
1303878147348,19.1050
1303878207348,19.1317
1303878267348,19.1418
1303878327348,19.1833
1303878387348,19.1532
1303878447348,19.0841
1303878507348,19.1468
1303878567348,19.1340
1303878627348,19.1406
1303878687348,19.2037
1303878747348,19.1807
1303878807348,19.1849
1303878867348,19.2299
1303878927348,19.1526
1303878987348,19.1427
1303879047348,19.1052
1303879107348,19.1595
1303879167348,19.1490
1303879227348,19.1150
1303879287348,19.1655
1303879347348,19.1450
1303879407348,19.1565
1303879467348,19.1648
1303879527348,19.1813
1303879587348,19.1663
1303879647348,19.1987
1303879707348,19.1791
1303879767348,19.1485
1303879827348,19.2108
1303879887348,19.2006
1303879947348,19.2461
1303880007348,19.2065
1303880067348,19.1857
1303880127348,19.1937
1303880187348,19.1851
1303880247348,19.2180
1303880307348,19.1912
1303880367348,19.2468
1303880427358,19.2576
1303880487358,19.2204
1303880547358,19.2531
1303880607358,19.2061
1303880667358,19.2105
1303880727358,19.2285
1303880787358,19.1773
1303880847358,19.2379
1303880907358,19.2470
1303880967358,19.2187
1303881027358,19.1794
1303881087358,19.1560
1303881147358,19.1743
1303881207358,19.1845
1303881267358,19.1209
1303881327359,19.2210
1303881387359,19.1252
1303881447359,19.2238
1303881507359,19.1333
1303881567359,19.1913
1303881627358,19.2751
1303881687358,19.2473
1303881747358,19.2007
1303881807358,19.2412
1303881867358,19.1720
1303881927358,19.2032
1303881987358,19.1955
1303882047358,19.2655
1303882107358,19.1750
1303882167358,19.2314
1303882227358,19.2071
1303882287358,19.1571
1303882347358,19.1460
1303882407358,19.1268
1303882467358,19.1357
1303882527358,19.1428
1303882587358,19.1314
1303882647359,19.1704
1303882707359,19.1062
1303882767359,19.1804
1303882827359,19.1185
1303882887359,19.0998
1303882947358,19.1204
1303883007358,19.0947
1303883067358,19.1382
1303883127358,19.1650
1303883187358,19.1333
1303883247358,19.1723
1303883307358,19.1579
1303883367358,19.1326
1303883427358,19.1312
1303883487358,19.1908
1303883547358,19.1162
1303883607358,19.1488
1303883667358,19.1303
1303883727358,19.1215
1303883787358,19.1083
1303883847358,19.0778
1303883907358,19.0483
1303883967358,19.0542
1303884027369,19.1326
1303884087369,19.0898
1303884147369,19.1199
1303884207369,19.0173
1303884267369,19.0254
1303884327369,19.0600
1303884387369,19.0577
1303884447369,19.0750
1303884507369,19.0501
1303884567369,19.0873
1303884627369,19.0597
1303884687369,19.1330
1303884747369,19.0863
1303884807369,19.1468
1303884867369,19.1441
1303884927369,19.0919
1303884987369,19.1855
1303885047369,19.1819
1303885107369,19.1485
1303885167369,19.1770
1303885227369,19.1902
1303885287369,19.1927
1303885347369,19.1662
1303885407369,19.1626
1303885467369,19.2135
1303885527369,19.1244
1303885587369,19.1924
1303885647369,19.1379
1303885707369,19.1412
1303885767369,19.1597
1303885827369,19.0942
1303885887369,19.1983
1303885947369,19.1122
1303886007369,19.1244
1303886067369,19.0719
1303886127369,19.0732
1303886187369,19.0574
1303886247369,19.0853
1303886307369,19.0749
1303886367369,19.1340
1303886427369,19.1169
1303886487369,19.1090
1303886547369,19.1279
1303886607369,19.1162
1303886667369,19.0863
1303886727369,19.1034
1303886787369,19.1932
1303886847369,19.0555
1303886907369,19.1373
1303886967369,19.1053
1303887027369,19.1303
1303887087369,19.1461
1303887147369,19.1057
1303887207369,19.0987
1303887267369,19.1082
1303887327369,19.0872
1303887387369,19.0718
1303887447369,19.0575
1303887507369,19.0640
1303887567369,19.0424
1303887627379,19.0696
1303887687379,19.0289
1303887747379,19.0476
1303887807379,19.0579
1303887867379,19.0347
1303887927379,18.9846
1303887987379,18.9922
1303888047379,19.0211
1303888107379,19.0447
1303888167379,19.0124
1303888227379,19.0418
1303888287379,19.0221
1303888347379,19.0479
1303888407379,19.0622
1303888467379,19.0408
1303888527379,19.0283
1303888587379,19.0095
1303888647379,18.9879
1303888707379,18.9832
1303888767379,18.9550
1303888827379,18.9612
1303888887379,18.9031
1303888947379,18.9906
1303889007379,19.0233
1303889067379,18.9366
1303889127379,18.9611
1303889187379,18.9872
1303889247379,19.0124
1303889307379,18.9704
1303889367379,18.9921
1303889427379,18.9717
1303889487379,19.0457
1303889547379,19.0186
1303889607379,19.0154
1303889667379,19.0246
1303889727379,19.0337
1303889787379,18.9803
1303889847379,18.9405
1303889907379,18.9787
1303889967379,18.9260
1303890027379,18.9611
1303890087379,19.0125
1303890147379,18.9869
1303890207379,19.0128
1303890267379,19.0271
1303890327379,18.9710
1303890387379,19.0510
1303890447379,19.0138
1303890507379,19.0491
1303890567379,18.9660
1303890627379,19.0131
1303890687379,19.0634
1303890747379,19.0686
1303890807379,19.0997
1303890867379,19.0378
1303890927379,19.0985
1303890987379,19.0590
1303891047379,19.0926
1303891107379,19.0899
1303891167379,19.0840
1303891227390,19.0608
1303891287390,19.0809
1303891347390,19.0474
1303891407390,19.0433
1303891467390,19.0556
1303891527390,19.0542
1303891587390,19.0828
1303891647390,19.0674
1303891707390,19.0303
1303891767390,19.0795
1303891827390,19.0371
1303891887390,19.0626
1303891947390,19.0599
1303892007390,19.0651
1303892067390,19.0908
1303892127390,19.0682
1303892187390,19.0686
1303892247390,19.1014
1303892307390,19.1121
1303892367390,19.0677
1303892427390,19.0756
1303892487390,19.0672
1303892547390,19.0576
1303892607390,19.0870
1303892667390,18.9986
1303892727390,19.0310
1303892787390,19.0659
1303892847390,19.0725
1303892907390,19.0189
1303892967390,19.0428
1303893027390,19.0437
1303893087390,19.0486
1303893147390,18.9586
1303893207390,18.9889
1303893267390,19.0136
1303893327390,18.9769
1303893387390,19.0170
1303893447390,19.0057
1303893507390,18.9999
1303893567390,19.0127
1303893627390,19.0086
1303893687390,18.9998
1303893747390,19.0224
1303893807390,19.0283
1303893867390,19.0274
1303893927390,18.9904
1303893987390,19.0012
1303894047390,19.0146
1303894107390,19.0578
1303894167390,19.0668
1303894227390,19.1026
1303894287390,19.0742
1303894347390,19.0477
1303894407390,19.0723
1303894467390,19.1674
1303894527390,19.1442
1303894587390,19.0753
1303894647390,19.1411
1303894707390,19.2414
1303894767390,19.2051
1303894827400,19.1953
1303894887400,19.2214
1303894947400,19.1604
1303895007400,19.1732
1303895067400,19.1201
1303895127400,19.1204
1303895187400,19.0821
1303895247400,19.1093
1303895307400,19.1185
1303895367400,19.0954
1303895427400,19.0377
1303895487400,19.1181
1303895547400,19.0817
1303895607400,19.0650
1303895667400,19.0677
1303895727400,19.0976
1303895787400,19.0248
1303895847400,19.0643
1303895907400,19.0462
1303895967400,19.0559
1303896027400,19.0560
1303896087400,19.0453
1303896147400,19.0266
1303896207400,19.0482
1303896267400,19.0152
1303896327400,19.0343
1303896387400,19.0973
1303896447400,19.0277
1303896507400,19.0479
1303896567400,18.9905
1303896627400,18.9794
1303896687400,19.0340
1303896747400,19.0059
1303896807400,18.9732
1303896867400,18.9998
1303896927400,19.0085
1303896987400,19.0307
1303897047400,19.0220
1303897107400,18.9808
1303897167400,18.9903
1303897227400,18.9877
1303897287400,18.9923
1303897347400,19.0408
1303897407400,19.0152
1303897467400,19.0119
1303897527400,19.0437
1303897587400,19.0991
1303897647400,19.0739
1303897707400,19.0911
1303897767400,19.1276
1303897827400,19.1477
1303897887400,19.1020
1303897947400,19.1129
1303898007400,19.0546
1303898067400,19.0933
1303898127400,19.1143
1303898187400,19.0549
1303898247400,19.0981
1303898307400,19.0472
1303898367400,19.0714
1303898427411,19.1173
1303898487411,19.0871
1303898547411,19.1286
1303898607411,19.1010
1303898667411,19.1088
1303898727411,19.0747
1303898787411,19.0758
1303898847411,19.0743
1303898907411,19.1015
1303898967411,19.0433
1303899027411,19.0139
1303899087411,19.0686
1303899147411,19.0383
1303899207411,19.0377
1303899267411,19.0962
1303899327411,19.0248
1303899387411,19.0424
1303899447411,19.1011
1303899507411,19.0806
1303899567411,19.1032
1303899627411,19.1080
1303899687411,19.1036
1303899747411,19.1559
1303899807411,19.1045
1303899867411,19.0904
1303899927411,19.0790
1303899987411,19.0970
1303900047411,19.0604
1303900107411,19.0337
1303900167411,19.0807
1303900227411,19.0707
1303900287411,19.0256
1303900347411,19.0792
1303900407411,19.1168
1303900467411,19.0832
1303900527411,19.0767
1303900587411,19.0501
1303900647411,19.0872
1303900707411,18.9686
1303900767411,19.0394
1303900827411,19.0018
1303900887411,19.0076
1303900947411,18.9687
1303901007411,19.0200
1303901067411,19.0250
1303901127411,19.0358
1303901187411,18.9453
1303901247411,18.9553
1303901307411,18.9554
1303901367411,18.9293
1303901427411,18.9339
1303901487411,18.9775
1303901547411,18.9635
1303901607411,18.9734
1303901667411,18.9917
1303901727411,19.0180
1303901787411,19.0025
1303901847411,19.0128
1303901907411,19.0506
1303901967411,19.0324
1303902027421,19.0467
1303902087421,19.0246
1303902147421,19.0245
1303902207421,19.0812
1303902267421,18.9601
1303902327421,19.0253
1303902387421,18.9723
1303902447421,19.0169
1303902507421,19.0154
1303902567421,19.0073
1303902627421,19.0010
1303902687421,18.9694
1303902747421,18.9606
1303902807421,19.0146
1303902867421,19.0111
1303902927421,18.9817
1303902987421,19.0147
1303903047421,18.9773
1303903107421,19.0259
1303903167421,19.0121
1303903227421,19.0714
1303903287421,19.0443
1303903347421,19.0066
1303903407421,18.9452
1303903467421,19.0417
1303903527421,18.9971
1303903587421,19.0212
1303903647421,19.0600
1303903707421,19.0185
1303903767421,19.0466
1303903827421,18.9904
1303903887421,18.9383
1303903947421,18.9703
1303904007421,19.0095
1303904067421,18.9934
1303904127421,18.9813
1303904187421,19.0427
1303904247421,19.0070
1303904307421,19.0215
1303904367421,19.0103
1303904427421,19.0260
1303904487421,19.0459
1303904547421,19.0290
1303904607421,19.0216
1303904667421,19.0323
1303904727421,19.0133
1303904787421,18.9605
1303904847421,19.0135
1303904907421,18.9946
1303904967421,18.9916
1303905027421,19.0400
1303905087421,18.9610
1303905147421,18.9738
1303905207421,18.9794
1303905267421,19.0158
1303905327421,18.9209
1303905387421,18.9322
1303905447421,18.9569
1303905507421,18.9954
1303905567421,18.9822
1303905627431,18.9572
1303905687431,18.9237
1303905747431,18.9694
1303905807431,18.9504
1303905867431,18.9360
1303905927431,18.9552
1303905987431,18.8804
1303906047431,18.9378
1303906107431,18.9528
1303906167431,18.9527
1303906227431,18.9126
1303906287431,18.8697
1303906347431,18.9292
1303906407431,18.9647
1303906467431,18.9287
1303906527431,18.9251
1303906587431,18.9298
1303906647431,18.8853
1303906707431,18.8521
1303906767431,18.9167
1303906827431,18.9283
1303906887431,18.8858
1303906947431,18.8642
1303907007431,18.9155
1303907067431,18.8966
1303907127431,18.8795
1303907187431,18.9553
1303907247431,18.8867
1303907307431,18.8681
1303907367431,18.8658
1303907427431,18.9037
1303907487431,18.9060
1303907547431,18.8848
1303907607431,18.8843
1303907667431,18.8137
1303907727431,18.8515
1303907787431,18.8646
1303907847431,18.8476
1303907907431,18.8204
1303907967431,18.8770
1303908027431,18.8556
1303908087431,18.8740
1303908147431,18.8558
1303908207431,18.8848
1303908267431,18.9203
1303908327431,18.8838
1303908387431,18.9018
1303908447431,18.8969
1303908507431,18.9177
1303908567431,18.9475
1303908627431,18.9324
1303908687431,18.8400
1303908747431,18.9165
1303908807431,18.9407
1303908867431,18.9487
1303908927431,18.8962
1303908987431,18.8577
1303909047431,18.9122
1303909107431,18.9104
1303909167431,18.9204
1303909227441,18.9350
1303909287441,18.9523
1303909347441,18.9479
1303909407441,18.9598
1303909467441,18.9641
1303909527441,18.9451
1303909587441,18.8664
1303909647441,18.8935
1303909707441,18.8512
1303909767441,18.8804
1303909827441,18.9088
1303909887441,18.8939
1303909947441,18.8605
1303910007441,18.8563
1303910067441,18.8439
1303910127441,18.8524
1303910187441,18.8390
1303910247441,18.8497
1303910307441,18.8668
1303910367441,18.8499
1303910427441,18.8434
1303910487441,18.8544
1303910547441,18.8829
1303910607441,18.8330
1303910667441,18.8647
1303910727441,18.8649
1303910787441,18.8683
1303910847441,18.9034
1303910907441,18.8335
1303910967441,18.8629
1303911027441,18.8484
1303911087441,18.8554
1303911147441,18.8521
1303911207441,18.8636
1303911267441,18.8268
1303911327441,18.8521
1303911387441,18.8048
1303911447441,18.7891
1303911507441,18.7965
1303911567441,18.8245
1303911627441,18.8096
1303911687441,18.7573
1303911747441,18.7715
1303911807441,18.8050
1303911867441,18.8589
1303911927441,18.8123
1303911987441,18.8374
1303912047441,18.8469
1303912107441,18.8448
1303912167441,18.8576
1303912227441,18.7982
1303912287441,18.8796
1303912347441,18.9179
1303912407441,18.9073
1303912467441,18.9509
1303912527441,18.8650
1303912587441,18.9003
1303912647441,18.9108
1303912707441,19.0259
1303912767441,19.0312
1303912827451,19.0450
1303912887451,19.0469
1303912947451,18.9775
1303913007451,18.9901
1303913067451,18.9501
1303913127451,18.9520
1303913187451,18.8940
1303913247451,18.9025
1303913307451,18.8873
1303913367451,18.9223
1303913427451,18.8890
1303913487451,18.8923
1303913547451,18.8941
1303913607451,18.8561
1303913667451,18.8807
1303913727451,18.8785
1303913787451,18.8641
1303913847451,18.8701
1303913907451,18.8593
1303913967451,18.8460
1303914027451,18.8247
1303914087451,18.8403
1303914147451,18.7824
1303914207451,18.7750
1303914267451,18.8376
1303914327451,18.8358
1303914387451,18.8690
1303914447451,18.8642
1303914507451,18.8085
1303914567451,18.8563
1303914627451,18.8122
1303914687451,18.8434
1303914747451,18.8369
1303914807451,18.8750
1303914867451,18.7645
1303914927451,18.8160
1303914987451,18.7992
1303915047451,18.8183
1303915107451,18.8166
1303915167451,18.8602
1303915227451,18.8641
1303915287451,18.8409
1303915347451,18.8507
1303915407451,18.8169
1303915467451,18.8329
1303915527451,18.8505
1303915587451,18.8329
1303915647451,18.8863
1303915707451,18.8503
1303915767451,18.8796
1303915827451,18.8465
1303915887451,18.8212
1303915947451,18.8480
1303916007451,18.8322
1303916067451,18.8728
1303916127451,18.8376
1303916187451,18.8396
1303916247451,18.8540
1303916307451,18.9058
1303916367451,18.8818
1303916427461,18.9032
1303916487461,18.8866
1303916547461,18.8613
1303916607461,18.8410
1303916667461,18.8422
1303916727461,18.8914
1303916787461,18.8617
1303916847461,18.8994
1303916907461,18.9158
1303916967461,18.9131
1303917027461,18.8779
1303917087461,18.9029
1303917147461,18.8508
1303917207461,18.8635
1303917267461,18.8519
1303917327461,18.8473
1303917387461,18.8543
1303917447461,18.8535
1303917507461,18.8026
1303917567461,18.8462
1303917627461,18.8221
1303917687461,18.8527
1303917747461,18.8801
1303917807461,18.8848
1303917867461,18.8529
1303917927461,18.8582
1303917987461,18.8941
1303918047461,18.8143
1303918107461,18.8260
1303918167461,18.8656
1303918227461,18.8548
1303918287461,18.8395
1303918347461,18.8419
1303918407461,18.8255
1303918467461,18.8195
1303918527461,18.8315
1303918587461,18.8085
1303918647461,18.7994
1303918707461,18.8574
1303918767461,18.8219
1303918827461,18.7797
1303918887461,18.8257
1303918947461,18.8211
1303919007461,18.8383
1303919067461,18.7753
1303919127461,18.7848
1303919187461,18.8001
1303919247461,18.7781
1303919307461,18.8227
1303919367461,18.8397
1303919427461,18.8955
1303919487461,18.8298
1303919547461,18.8807
1303919607461,18.8719
1303919667461,18.8944
1303919727461,18.9266
1303919787461,18.8633
1303919847461,18.8679
1303919907461,18.8826
1303919967461,18.9189
1303920027471,18.8748
1303920087471,18.8996
1303920147471,18.8944
1303920207471,18.8934
1303920267471,18.8853
1303920327471,18.9100
1303920387471,18.8578
1303920447471,18.8894
1303920507471,18.9212
1303920567471,18.8884
1303920627471,18.9083
1303920687471,18.9079
1303920747471,18.8704
1303920807471,18.8289
1303920867471,18.8675
1303920927471,18.8642
1303920987471,18.9094
1303921047471,18.9120
1303921107471,18.9289
1303921167471,18.9524
1303921227471,18.9648
1303921287471,18.9306
1303921347471,18.9897
1303921407471,18.9963
1303921467471,19.0031
1303921527471,19.0042
1303921587471,18.9519
1303921647471,18.9682
1303921707471,18.9332
1303921767471,18.9580
1303921827471,18.9679
1303921887471,18.9789
1303921947471,18.9511
1303922007471,18.9620
1303922067471,18.9593
1303922127471,18.9670
1303922187471,18.9649
1303922247471,18.9587
1303922307471,18.9599
1303922367471,18.9717
1303922427471,18.9559
1303922487471,18.9827
1303922547471,19.0335
1303922607471,18.9575
1303922667471,19.0305
1303922727471,18.9552
1303922787471,18.9614
1303922847471,18.9236
1303922907471,18.9737
1303922967471,18.9883
1303923027471,18.9987
1303923087471,18.9317
1303923147471,18.9632
1303923207471,18.9342
1303923267471,18.9397
1303923327471,18.9200
1303923387471,18.9387
1303923447471,18.8899
1303923507471,18.8901
1303923567471,18.8786
1303923627481,18.8879
1303923687481,18.8043
1303923747481,18.8789
1303923807481,18.9049
1303923867481,18.9233
1303923927481,18.9720
1303923987481,18.9852
1303924047481,18.9455
1303924107481,18.9711
1303924167481,18.9610
1303924227481,18.9203
1303924287481,18.9659
1303924827481,18.9351
1303924887481,18.9714
1303924947481,18.9391
1303925007481,18.9295
1303925067481,18.9232
1303925127481,18.9047
1303925187481,18.9178
1303925247481,18.9185
1303925307481,18.9336
1303925367481,18.9796
1303925427481,18.9288
1303925487481,18.9657
1303925547481,18.9267
1303925607481,18.9808
1303925667481,18.9232
1303925727481,18.9233
1303925787481,18.9659
1303925847481,18.9483
1303925907481,18.9732
1303925967481,18.9602
1303926027481,18.9921
1303926087481,18.9783
1303926147481,18.9681
1303926207481,18.9843
1303926267481,18.9760
1303926327481,18.9698
1303926387481,19.0013
1303926447481,18.9896
1303926507481,19.0063
1303926567481,18.9705
1303926627481,18.9398
1303926687481,18.9450
1303926747481,18.9387
1303926807481,19.0046
1303926867481,18.9568
1303926927481,18.9424
1303926987481,18.9796
1303927047481,18.9435
1303927107481,18.9861
1303927167481,18.9478
1303927227491,18.9834
1303927287491,18.9308
1303927347491,19.0002
1303927407491,18.9419
1303927467491,18.9694
1303927527491,18.9834
1303927587491,19.0012
1303927647491,18.9541
1303927707491,19.0576
1303927767491,19.0146
1303927827491,19.0263
1303927887491,19.0311
1303927947491,18.9995
1303928007491,18.9848
1303928067491,19.0257
1303928127491,19.0333
1303928187491,19.0166
1303928247491,18.9987